TSX-5

Satellite information

Favourite Embed

Satellite Type and Status

PAYLOADIN ORBIT

Key statistics

Satellite TSX-5 at a glance.

Uptime

9104

Days in orbit

Revolutions

≈ 14.5

Per day

Orbit

LEO

Low Earth Orbit

Inclination

68.9

Latest

Satellite identification and parameters

Extended collection of information and parameters for TSX-5.

Object identification

Identified? True

Debris? False

Object name: TSX-5

International designator: 2000-030A

Object number (NORAD): 26374

Object ID (CCSDS): 26374

Country: UNITED STATES OF AMERICA (US)

Current information (Y/N): Y

RCS size: LARGE

Orbital parameters

Period: 99.532 minutes

Inclination: 68.9187 deg

SMA: 7114.353 km

Apoapsis: 1083.434 km

Periapsis: 389.002 km

RAAN: 259.0354 deg

Eccentricy: 0.048805

Argument of periapsis: 190.2389 deg

Mean anomaly: 168.8516 deg

Mean motion: 14.4677052 rev/day

Mean motion (dot): 0.00022878 rev/day2

B* drag term: 0.0013313 1/REarth

Two-line elements (TLE)

Creation date: May 11, 2025, 2:40 a.m.

Reference frame: TEME

Reference center: EARTH

Epoch: May 10, 2025, 4:58 p.m. UTC

TLE line 0: 0 TSX-5

TLE line 1: 1 26374U 00030A 25130.70733925 .00022878 00000-0 13313-2 0 9992

TLE line 2: 2 26374 68.9187 259.0354 0488050 190.2389 168.8516 14.46770520264056

Live tracking on map

Real-time ground track for satellite TSX-5.

In-orbit conjunctions

A list of the most updated potential collisions computed for object TSX-5.

Target Orbit TCA Probability of collision Miss distance Type
CZ-4B DEB SSO 2025-04-19 14:26:41 0.0001113728 789.0 (m) DEBRIS
GEOSAT SSO 2024-12-31 07:52:07 0.000102116 687.0 (m) PAYLOAD
SL-8 DEB LEO 2024-06-23 20:52:32 0.0005298842 55.0 (m) DEBRIS

Associated space launch

TSX-5 was lifted into orbit during the mission ‘Pegasus XL | Tri-Services Experiments Platform-5 (TSX-5)’, on board a Pegasus XL space rocket.

The launch took place on June 7, 2000, 1:19 p.m. from Vandenberg Space Force Base.

For more information about the launch, click the button.

Launch to space Pegasus XL | Tri-Services Experiments Platform-5 (TSX-5)
Pegasus XL | Tri-Services Experiments Platform-5 (TSX-5)

Agency: N/A

Status: Launch Successful

Launch date: June 7, 2000, 1:19 p.m. UTC

Rocket: Pegasus XL

Launch pad: Vandenberg Space Force Base

Location: Air launch to orbit

...

Latest news about this satellite

There are no fresh news available about this satellite. Check back as we update our databases every day.


Newsletter sign-up

Weekly statistics, charts and insights to help you stay on top of the space industry.